08-05-2022, 00:00:03,     10,    0.0,    8.5,   0.00,   0.00, 1024.1,   91.7, -999.0
08-05-2022, 00:00:13,      9,    0.0,    8.5,   0.00,   0.00, 1024.1,   91.8, -999.0
08-05-2022, 00:00:23,      9,    0.0,    8.6,   0.00,   0.00, 1024.1,   91.8, -999.0
08-05-2022, 00:00:33,      9,    0.0,    8.5,   0.00,   0.00, 1024.1,   91.8, -999.0
08-05-2022, 00:00:43,      9,    0.0,    8.6,   0.00,   0.00, 1024.1,   91.8, -999.0
08-05-2022, 00:00:53,      9,    0.0,    8.5,   0.00,   0.00, 1024.1,   91.7, -999.0
08-05-2022, 00:01:03,      9,    0.0,    8.6,   0.00,   0.00, 1024.1,   91.7, -999.0
08-05-2022, 00:01:13,      9,    0.0,    8.6,   0.00,   0.00, 1024.1,   91.7, -999.0
08-05-2022, 00:01:22,      9,    0.0,    8.5,   0.00,   0.00, 1024.1,   91.7, -999.0
08-05-2022, 00:01:33,      9,    0.0,    8.4,   0.00,   0.00, 1024.1,   91.7, -999.0
08-05-2022, 00:01:42,      9,    0.0,    8.5,   0.00,   0.00, 1024.1,   91.7, -999.0
08-05-2022, 00:01:52,      9,    0.0,    8.7,   0.00,   0.00, 1024.1,   91.6, -999.0
08-05-2022, 00:02:03,      9,    0.0,    8.6,   0.00,   0.00, 1024.1,   91.7, -999.0
08-05-2022, 00:02:12,     10,    0.0,    8.5,   0.00,   0.00, 1024.1,   91.6, -999.0
08-05-2022, 00:02:22,      9,    0.0,    8.5,   0.00,   0.00, 1024.1,   91.6, -999.0
08-05-2022, 00:02:32,      9,    0.0,    8.5,   0.00,   0.00, 1024.1,   91.5, -999.0
08-05-2022, 00:02:42,      9,    0.0,    8.4,   0.00,   0.00, 1024.1,   91.6, -999.0
08-05-2022, 00:02:52,      9,    0.0,    8.4,   0.00,   0.00, 1024.1,   91.6, -999.0
08-05-2022, 00:03:02,      9,    0.0,    8.5,   0.00,   0.00, 1024.1,   91.6, -999.0
08-05-2022, 00:03:12,      9,    0.0,    8.5,   0.00,   0.00, 1024.1,   91.5, -999.0
08-05-2022, 00:03:22,      9,    0.0,    8.5,   0.00,   0.00, 1024.1,   91.5, -999.0
08-05-2022, 00:03:32,      9,    0.0,    8.5,   0.00,   0.00, 1024.1,   91.4, -999.0
08-05-2022, 00:03:42,      9,    0.0,    8.5,   0.00,   0.00, 1024.1,   91.5, -999.0
08-05-2022, 00:03:52,      9,    0.0,    8.5,   0.00,   0.00, 1024.1,   91.5, -999.0
08-05-2022, 00:04:02,      9,    0.0,    8.5,   0.00,   0.00, 1024.1,   91.5, -999.0
08-05-2022, 00:04:12,      9,    0.0,    8.5,   0.00,   0.00, 1024.1,   91.5, -999.0
08-05-2022, 00:04:21,      9,    0.0,    8.5,   0.00,   0.00, 1024.1,   91.5, -999.0
08-05-2022, 00:04:34,      9,    0.0,    8.6,   0.00,   0.00, 1024.1,   91.6, -999.0
08-05-2022, 00:04:42,      9,    0.0,    8.6,   0.00,   0.00, 1024.2,   91.7, -999.0
08-05-2022, 00:04:51,      9,    0.0,    8.6,   0.00,   0.00, 1024.1,   91.7, -999.0
08-05-2022, 00:05:02,      9,    0.0,    8.6,   0.00,   0.00, 1024.1,   91.6, -999.0
08-05-2022, 00:05:11,      9,    0.0,    8.6,   0.00,   0.00, 1024.1,   91.6, -999.0
08-05-2022, 00:05:21,      9,    0.0,    8.6,   0.00,   0.00, 1024.1,   91.7, -999.0
08-05-2022, 00:05:31,      9,    0.0,    8.6,   0.00,   0.00, 1024.2,   91.6, -999.0
08-05-2022, 00:05:41,      9,    0.0,    8.5,   0.00,   0.00, 1024.1,   91.6, -999.0
08-05-2022, 00:05:51,      9,    0.0,    8.5,   0.00,   0.00, 1024.2,   91.6, -999.0
08-05-2022, 00:06:01,      9,    0.0,    8.6,   0.00,   0.00, 1024.2,   91.6, -999.0
08-05-2022, 00:06:11,      9,    0.0,    8.6,   0.00,   0.00, 1024.1,   91.7, -999.0
08-05-2022, 00:06:21,      9,    0.0,    8.6,   0.00,   0.00, 1024.2,   91.7, -999.0
08-05-2022, 00:06:31,      9,    0.0,    8.6,   0.00,   0.00, 1024.2,   91.7, -999.0
08-05-2022, 00:06:41,     10,    0.0,    8.5,   0.00,   0.00, 1024.2,   91.6, -999.0
08-05-2022, 00:06:51,      9,    0.0,    8.6,   0.00,   0.00, 1024.1,   91.6, -999.0
08-05-2022, 00:07:01,      9,    0.0,    8.6,   0.00,   0.00, 1024.2,   91.6, -999.0
08-05-2022, 00:07:11,      9,    0.0,    8.6,   0.00,   0.00, 1024.1,   91.5, -999.0
08-05-2022, 00:07:21,      9,    0.0,    8.6,   0.00,   0.00, 1024.1,   91.6, -999.0
08-05-2022, 00:07:31,      9,    0.0,    8.6,   0.00,   0.00, 1024.2,   91.5, -999.0
08-05-2022, 00:07:41,      9,    0.0,    8.6,   0.00,   0.00, 1024.2,   91.5, -999.0
08-05-2022, 00:07:50,      9,    0.0,    8.6,   0.00,   0.00, 1024.2,   91.5, -999.0
08-05-2022, 00:08:00,      9,    0.0,    8.6,   0.00,   0.00, 1024.1,   91.5, -999.0
08-05-2022, 00:08:11,      9,    0.0,    8.6,   0.00,   0.00, 1024.1,   91.6, -999.0
08-05-2022, 00:08:20,      9,    0.0,    8.6,   0.00,   0.00, 1024.1,   91.6, -999.0
08-05-2022, 00:08:30,      9,    0.0,    8.6,   0.00,   0.00, 1024.1,   91.6, -999.0
08-05-2022, 00:08:41,      9,    0.0,    8.6,   0.00,   0.00, 1024.1,   91.4, -999.0
08-05-2022, 00:08:50,      9,    0.0,    8.6,   0.00,   0.00, 1024.1,   91.4, -999.0
08-05-2022, 00:09:00,      9,    0.0,    8.6,   0.00,   0.00, 1024.1,   91.2, -999.0
08-05-2022, 00:09:10,     10,    0.0,    8.5,   0.00,   0.00, 1024.2,   91.2, -999.0
08-05-2022, 00:09:20,      9,    0.0,    8.6,   0.00,   0.00, 1024.2,   91.2, -999.0
08-05-2022, 00:09:30,      9,    0.0,    8.6,   0.00,   0.00, 1024.1,   91.2, -999.0
08-05-2022, 00:09:40,      9,    0.0,    8.6,   0.00,   0.00, 1024.1,   91.2, -999.0
08-05-2022, 00:09:50,      9,    0.0,    8.5,   0.00,   0.00, 1024.1,   91.2, -999.0
08-05-2022, 00:10:00,      9,    0.0,    8.6,   0.00,   0.00, 1024.2,   91.4, -999.0
08-05-2022, 00:10:10,      9,    0.0,    8.6,   0.00,   0.00, 1024.1,   91.2, -999.0
08-05-2022, 00:10:20,      9,    0.0,    8.6,   0.00,   0.00, 1024.1,   91.5, -999.0
08-05-2022, 00:10:30,      9,    0.0,    8.6,   0.00,   0.00, 1024.1,   91.4, -999.0
08-05-2022, 00:10:40,      9,    0.0,    8.6,   0.00,   0.00, 1024.1,   91.3, -999.0
08-05-2022, 00:10:50,     10,    0.0,    8.5,   0.00,   0.00, 1024.1,   91.2, -999.0
08-05-2022, 00:10:59,      9,    0.0,    8.5,   0.00,   0.00, 1024.2,   91.2, -999.0
08-05-2022, 00:11:10,      9,    0.0,    8.6,   0.00,   0.00, 1024.1,   91.2, -999.0
08-05-2022, 00:11:20,      9,    0.0,    8.6,   0.00,   0.00, 1024.1,   91.3, -999.0
08-05-2022, 00:11:29,      9,    0.0,    8.7,   0.00,   0.00, 1024.1,   91.4, -999.0
08-05-2022, 00:11:39,     10,    0.0,    8.6,   0.00,   0.00, 1024.2,   91.6, -999.0
08-05-2022, 00:11:49,      9,    0.0,    8.6,   0.00,   0.00, 1024.2,   91.6, -999.0
08-05-2022, 00:11:59,      9,    0.0,    8.6,   0.00,   0.00, 1024.2,   91.6, -999.0
08-05-2022, 00:12:09,      9,    0.0,    8.6,   0.00,   0.00, 1024.2,   91.5, -999.0
08-05-2022, 00:12:19,      9,    0.0,    8.6,   0.00,   0.00, 1024.2,   91.4, -999.0
08-05-2022, 00:12:29,      9,    0.0,    8.6,   0.00,   0.00, 1024.1,   91.3, -999.0
08-05-2022, 00:12:39,      9,    0.0,    8.6,   0.00,   0.00, 1024.2,   91.2, -999.0
08-05-2022, 00:12:49,      9,    0.0,    8.6,   0.00,   0.00, 1024.2,   91.3, -999.0
08-05-2022, 00:12:59,      9,    0.0,    8.6,   0.00,   0.00, 1024.2,   91.3, -999.0
08-05-2022, 00:13:09,      9,    0.0,    8.6,   0.00,   0.00, 1024.2,   91.4, -999.0
08-05-2022, 00:13:19,      9,    0.0,    8.6,   0.00,   0.00, 1024.2,   91.6, -999.0
08-05-2022, 00:13:29,    324,    0.0,    8.7,   0.00,   0.00, 1024.2,   91.4, -999.0
08-05-2022, 00:13:39,    325,    0.0,    8.6,   0.00,   0.00, 1024.2,   91.3, -999.0
08-05-2022, 00:13:49,    325,    0.0,    8.6,   0.00,   0.00, 1024.2,   91.3, -999.0
08-05-2022, 00:13:58,    324,    0.0,    8.5,   0.00,   0.00, 1024.2,   91.1, -999.0
08-05-2022, 00:14:08,    324,    0.0,    8.5,   0.00,   0.00, 1024.2,   91.1, -999.0
08-05-2022, 00:14:19,    325,    0.0,    8.4,   0.00,   0.00, 1024.1,   90.9, -999.0
08-05-2022, 00:14:28,    325,    0.0,    8.4,   0.00,   0.00, 1024.2,   90.8, -999.0
08-05-2022, 00:14:38,    325,    0.0,    8.3,   0.00,   0.00, 1024.2,   90.7, -999.0
08-05-2022, 00:14:49,    324,    0.0,    8.4,   0.00,   0.00, 1024.2,   90.9, -999.0
08-05-2022, 00:14:58,    325,    0.0,    8.4,   0.00,   0.00, 1024.2,   90.9, -999.0
08-05-2022, 00:15:08,    324,    0.0,    8.4,   0.00,   0.00, 1024.2,   90.9, -999.0
08-05-2022, 00:15:18,    324,    0.0,    8.4,   0.00,   0.00, 1024.2,   91.0, -999.0
08-05-2022, 00:15:28,    325,    0.0,    8.4,   0.00,   0.00, 1024.2,   90.9, -999.0
08-05-2022, 00:15:38,    324,    0.0,    8.4,   0.00,   0.00, 1024.2,   91.0, -999.0
08-05-2022, 00:15:48,    325,    0.0,    8.4,   0.00,   0.00, 1024.2,   91.0, -999.0
08-05-2022, 00:15:58,    324,    0.0,    8.4,   0.00,   0.00, 1024.2,   91.0, -999.0
08-05-2022, 00:16:08,    325,    0.0,    8.4,   0.00,   0.00, 1024.2,   91.1, -999.0
08-05-2022, 00:16:18,    325,    0.0,    8.4,   0.00,   0.00, 1024.2,   91.2, -999.0
08-05-2022, 00:16:28,    325,    0.0,    8.5,   0.00,   0.00, 1024.2,   91.3, -999.0
08-05-2022, 00:16:37,    324,    0.0,    8.5,   0.00,   0.00, 1024.2,   91.3, -999.0
08-05-2022, 00:16:48,    325,    0.0,    8.6,   0.00,   0.00, 1024.2,   91.4, -999.0
08-05-2022, 00:16:58,    325,    0.0,    8.6,   0.00,   0.00, 1024.2,   91.6, -999.0
08-05-2022, 00:17:07,    324,    0.0,    8.6,   0.00,   0.00, 1024.2,   91.6, -999.0
08-05-2022, 00:17:18,    325,    0.0,    8.6,   0.00,   0.00, 1024.2,   91.7, -999.0
08-05-2022, 00:17:28,    325,    0.0,    8.6,   0.00,   0.00, 1024.2,   91.6, -999.0
08-05-2022, 00:17:37,    325,    0.0,    8.6,   0.00,   0.00, 1024.2,   91.6, -999.0
08-05-2022, 00:17:47,    325,    0.0,    8.5,   0.00,   0.00, 1024.2,   91.5, -999.0
08-05-2022, 00:17:57,    325,    0.0,    8.6,   0.00,   0.00, 1024.2,   91.5, -999.0
08-05-2022, 00:18:07,    324,    0.0,    8.6,   0.00,   0.00, 1024.2,   91.6, -999.0
08-05-2022, 00:18:17,    324,    0.0,    8.6,   0.00,   0.00, 1024.2,   91.5, -999.0
08-05-2022, 00:18:27,    325,    0.0,    8.6,   0.00,   0.00, 1024.2,   91.6, -999.0
08-05-2022, 00:18:37,    324,    0.0,    8.6,   0.00,   0.00, 1024.2,   91.6, -999.0
08-05-2022, 00:18:47,    324,    0.0,    8.6,   0.00,   0.00, 1024.2,   91.7, -999.0
08-05-2022, 00:18:57,    324,    0.0,    8.6,   0.00,   0.00, 1024.2,   91.6, -999.0
08-05-2022, 00:19:07,    358,    0.0,    8.6,   0.00,   0.00, 1024.2,   91.7, -999.0
08-05-2022, 00:19:17,    358,    0.0,    8.5,   0.00,   0.00, 1024.2,   91.4, -999.0
08-05-2022, 00:19:27,    358,    0.0,    8.4,   0.00,   0.00, 1024.2,   91.2, -999.0
08-05-2022, 00:19:37,    358,    0.0,    8.6,   0.00,   0.00, 1024.2,   91.3, -999.0
08-05-2022, 00:19:47,    358,    0.0,    8.6,   0.00,   0.00, 1024.2,   91.4, -999.0
08-05-2022, 00:19:57,    358,    0.0,    8.6,   0.00,   0.00, 1024.2,   91.4, -999.0
08-05-2022, 00:20:07,    359,    0.0,    8.5,   0.00,   0.00, 1024.2,   91.3, -999.0
08-05-2022, 00:20:16,    358,    0.0,    8.5,   0.00,   0.00, 1024.2,   91.3, -999.0
08-05-2022, 00:20:27,    358,    0.0,    8.6,   0.00,   0.00, 1024.2,   91.2, -999.0
08-05-2022, 00:20:36,    358,    0.0,    8.5,   0.00,   0.00, 1024.2,   91.3, -999.0
08-05-2022, 00:20:46,    358,    0.0,    8.5,   0.00,   0.00, 1024.2,   91.3, -999.0
08-05-2022, 00:20:56,    358,    0.0,    8.6,   0.00,   0.00, 1024.2,   91.3, -999.0
08-05-2022, 00:21:06,    358,    0.0,    8.5,   0.00,   0.00, 1024.2,   91.4, -999.0
08-05-2022, 00:21:16,    358,    0.0,    8.6,   0.00,   0.00, 1024.2,   91.4, -999.0
08-05-2022, 00:21:26,    358,    0.0,    8.6,   0.00,   0.00, 1024.2,   91.4, -999.0
08-05-2022, 00:21:36,    358,    0.0,    8.6,   0.00,   0.00, 1024.2,   91.4, -999.0
08-05-2022, 00:21:46,    358,    0.0,    8.6,   0.00,   0.00, 1024.2,   91.5, -999.0
08-05-2022, 00:21:56,    358,    0.0,    8.6,   0.00,   0.00, 1024.2,   91.4, -999.0
08-05-2022, 00:22:06,    358,    0.0,    8.6,   0.00,   0.00, 1024.2,   91.5, -999.0
08-05-2022, 00:22:16,      0,    0.0,    8.6,   0.00,   0.00, 1024.2,   91.5, -999.0
08-05-2022, 00:22:26,      0,    0.0,    8.6,   0.00,   0.00, 1024.3,   91.4, -999.0
08-05-2022, 00:22:36,      0,    0.0,    8.5,   0.00,   0.00, 1024.2,   91.2, -999.0
08-05-2022, 00:22:46,      0,    0.0,    8.5,   0.00,   0.00, 1024.2,   91.2, -999.0
08-05-2022, 00:22:56,      0,    0.0,    8.5,   0.00,   0.00, 1024.2,   91.2, -999.0
08-05-2022, 00:23:06,      0,    0.0,    8.5,   0.00,   0.00, 1024.2,   91.2, -999.0
08-05-2022, 00:23:15,      0,    0.0,    8.5,   0.00,   0.00, 1024.2,   91.2, -999.0
08-05-2022, 00:23:26,      0,    0.0,    8.6,   0.00,   0.00, 1024.2,   91.2, -999.0
08-05-2022, 00:23:36,      0,    0.0,    8.6,   0.00,   0.00, 1024.2,   91.4, -999.0
08-05-2022, 00:23:45,      0,    0.0,    8.6,   0.00,   0.00, 1024.3,   91.4, -999.0
08-05-2022, 00:23:55,      0,    0.0,    8.5,   0.00,   0.00, 1024.3,   91.2, -999.0
08-05-2022, 00:24:06,      0,    0.0,    8.4,   0.00,   0.00, 1024.2,   90.9, -999.0
08-05-2022, 00:24:15,      0,    0.0,    8.4,   0.00,   0.00, 1024.2,   90.8, -999.0
08-05-2022, 00:24:25,      0,    0.0,    8.4,   0.00,   0.00, 1024.2,   91.0, -999.0
08-05-2022, 00:24:37,      0,    0.0,    8.4,   0.00,   0.00, 1024.2,   91.1, -999.0
08-05-2022, 00:24:45,      0,    0.0,    8.5,   0.00,   0.00, 1024.2,   91.0, -999.0
08-05-2022, 00:24:55,      0,    0.0,    8.5,   0.00,   0.00, 1024.2,   91.0, -999.0
08-05-2022, 00:25:05,      8,    0.0,    8.3,   0.00,   0.00, 1024.2,   91.1, -999.0
08-05-2022, 00:25:15,      0,    0.0,    8.3,   0.00,   0.00, 1024.2,   91.0, -999.0
08-05-2022, 00:25:25,      0,    0.0,    8.4,   0.00,   0.00, 1024.2,   91.0, -999.0
08-05-2022, 00:25:35,      0,    0.0,    8.4,   0.00,   0.00, 1024.2,   91.1, -999.0
08-05-2022, 00:25:45,      0,    0.0,    8.4,   0.00,   0.00, 1024.2,   91.1, -999.0
08-05-2022, 00:25:55,      0,    0.0,    8.4,   0.00,   0.00, 1024.2,   91.1, -999.0
08-05-2022, 00:26:05,      2,    0.0,    8.4,   0.00,   0.00, 1024.2,   91.1, -999.0
08-05-2022, 00:26:15,      0,    0.0,    8.4,   0.00,   0.00, 1024.2,   91.0, -999.0
08-05-2022, 00:26:24,      0,    0.0,    8.4,   0.00,   0.00, 1024.2,   91.0, -999.0
08-05-2022, 00:26:35,      0,    0.0,    8.4,   0.00,   0.00, 1024.3,   91.0, -999.0
08-05-2022, 00:26:45,      0,    0.0,    8.4,   0.00,   0.00, 1024.2,   91.1, -999.0
08-05-2022, 00:26:54,      0,    0.0,    8.5,   0.00,   0.00, 1024.2,   91.1, -999.0
08-05-2022, 00:27:05,      8,    0.0,    8.4,   0.00,   0.00, 1024.3,   91.2, -999.0
08-05-2022, 00:27:14,      0,    0.0,    8.4,   0.00,   0.00, 1024.2,   91.1, -999.0
08-05-2022, 00:27:24,      0,    0.0,    8.4,   0.00,   0.00, 1024.2,   91.0, -999.0
08-05-2022, 00:27:34,      0,    0.0,    8.4,   0.00,   0.00, 1024.3,   90.7, -999.0
08-05-2022, 00:27:44,      0,    0.0,    8.3,   0.00,   0.00, 1024.2,   90.9, -999.0
08-05-2022, 00:27:54,      2,    0.0,    8.4,   0.00,   0.00, 1024.3,   91.0, -999.0
08-05-2022, 00:28:04,      3,    0.0,    8.3,   0.00,   0.00, 1024.2,   90.9, -999.0
08-05-2022, 00:28:14,      3,    0.0,    8.3,   0.00,   0.00, 1024.2,   90.7, -999.0
08-05-2022, 00:28:24,      3,    0.0,    8.3,   0.00,   0.00, 1024.2,   91.1, -999.0
08-05-2022, 00:28:34,      3,    0.0,    8.3,   0.00,   0.00, 1024.2,   91.2, -999.0
08-05-2022, 00:28:44,      2,    0.0,    8.3,   0.00,   0.00, 1024.2,   91.2, -999.0
08-05-2022, 00:28:54,      3,    0.0,    8.4,   0.00,   0.00, 1024.3,   91.2, -999.0
08-05-2022, 00:29:04,      3,    0.0,    8.4,   0.00,   0.00, 1024.2,   91.3, -999.0
08-05-2022, 00:29:14,      3,    0.0,    8.4,   0.00,   0.00, 1024.2,   91.3, -999.0
08-05-2022, 00:29:24,      3,    0.0,    8.3,   0.00,   0.00, 1024.2,   91.3, -999.0
08-05-2022, 00:29:34,      2,    0.0,    8.4,   0.00,   0.00, 1024.2,   91.3, -999.0
08-05-2022, 00:29:44,      3,    0.0,    8.5,   0.00,   0.00, 1024.2,   91.3, -999.0
08-05-2022, 00:29:53,      3,    0.0,    8.4,   0.00,   0.00, 1024.2,   91.3, -999.0
08-05-2022, 00:30:03,      3,    0.0,    8.3,   0.00,   0.00, 1024.2,   91.2, -999.0
08-05-2022, 00:30:15,      3,    0.0,    8.3,   0.00,   0.00, 1024.2,   91.1, -999.0
08-05-2022, 00:30:23,      3,    0.0,    8.3,   0.00,   0.00, 1024.2,   91.0, -999.0
08-05-2022, 00:30:33,      4,    0.0,    8.3,   0.00,   0.00, 1024.2,   91.1, -999.0
08-05-2022, 00:30:43,      3,    0.0,    8.3,   0.00,   0.00, 1024.2,   91.1, -999.0
08-05-2022, 00:30:53,      3,    0.0,    8.3,   0.00,   0.00, 1024.2,   91.2, -999.0
08-05-2022, 00:31:03,      3,    0.0,    8.3,   0.00,   0.00, 1024.2,   91.2, -999.0
08-05-2022, 00:31:13,      3,    0.0,    8.3,   0.00,   0.00, 1024.2,   91.0, -999.0
08-05-2022, 00:31:23,      3,    0.0,    8.3,   0.00,   0.00, 1024.2,   91.3, -999.0
08-05-2022, 00:31:33,      3,    0.0,    8.3,   0.00,   0.00, 1024.2,   91.3, -999.0
08-05-2022, 00:31:43,      3,    0.0,    8.3,   0.00,   0.00, 1024.2,   91.2, -999.0
08-05-2022, 00:31:53,      3,    0.0,    8.4,   0.00,   0.00, 1024.2,   91.3, -999.0
08-05-2022, 00:32:03,      3,    0.0,    8.4,   0.00,   0.00, 1024.2,   91.3, -999.0
08-05-2022, 00:32:13,      3,    0.0,    8.4,   0.00,   0.00, 1024.2,   91.3, -999.0
08-05-2022, 00:32:23,      3,    0.0,    8.3,   0.00,   0.00, 1024.2,   91.3, -999.0
08-05-2022, 00:32:32,      3,    0.0,    8.4,   0.00,   0.00, 1024.2,   91.4, -999.0
08-05-2022, 00:32:43,      3,    0.0,    8.4,   0.00,   0.00, 1024.2,   91.3, -999.0
08-05-2022, 00:32:53,      3,    0.0,    8.4,   0.00,   0.00, 1024.2,   91.3, -999.0
08-05-2022, 00:33:02,      3,    0.0,    8.3,   0.00,   0.00, 1024.2,   91.4, -999.0
08-05-2022, 00:33:12,      3,    0.0,    8.3,   0.00,   0.00, 1024.2,   91.5, -999.0
08-05-2022, 00:33:23,      3,    0.0,    8.4,   0.00,   0.00, 1024.2,   91.5, -999.0
08-05-2022, 00:33:32,      3,    0.0,    8.5,   0.00,   0.00, 1024.2,   91.5, -999.0
08-05-2022, 00:33:42,      3,    0.0,    8.4,   0.00,   0.00, 1024.2,   91.4, -999.0
08-05-2022, 00:33:52,      3,    0.0,    8.4,   0.00,   0.00, 1024.2,   91.5, -999.0
08-05-2022, 00:34:02,      3,    0.0,    8.4,   0.00,   0.00, 1024.2,   91.5, -999.0
08-05-2022, 00:34:12,      3,    0.0,    8.4,   0.00,   0.00, 1024.2,   91.6, -999.0
08-05-2022, 00:34:22,      3,    0.0,    8.4,   0.00,   0.00, 1024.2,   91.5, -999.0
08-05-2022, 00:34:32,      4,    0.0,    8.3,   0.00,   0.00, 1024.2,   91.5, -999.0
08-05-2022, 00:34:42,      3,    0.0,    8.3,   0.00,   0.00, 1024.3,   91.5, -999.0
08-05-2022, 00:34:52,      3,    0.0,    8.3,   0.00,   0.00, 1024.2,   91.4, -999.0
08-05-2022, 00:35:02,      3,    0.0,    8.3,   0.00,   0.00, 1024.2,   91.3, -999.0
08-05-2022, 00:35:12,      3,    0.0,    8.3,   0.00,   0.00, 1024.2,   91.4, -999.0
08-05-2022, 00:35:22,      3,    0.0,    8.3,   0.00,   0.00, 1024.2,   91.4, -999.0
08-05-2022, 00:35:32,      3,    0.0,    8.3,   0.00,   0.00, 1024.3,   91.4, -999.0
08-05-2022, 00:35:41,      3,    0.0,    8.4,   0.00,   0.00, 1024.2,   91.4, -999.0
08-05-2022, 00:35:52,      3,    0.0,    8.4,   0.00,   0.00, 1024.3,   91.6, -999.0
08-05-2022, 00:36:02,      4,    0.0,    8.3,   0.00,   0.00, 1024.2,   91.7, -999.0
08-05-2022, 00:36:11,      3,    0.0,    8.3,   0.00,   0.00, 1024.2,   91.6, -999.0
08-05-2022, 00:36:22,      4,    0.0,    8.3,   0.00,   0.00, 1024.2,   91.6, -999.0
08-05-2022, 00:36:31,      3,    0.0,    8.4,   0.00,   0.00, 1024.2,   91.6, -999.0
08-05-2022, 00:36:41,      3,    0.0,    8.4,   0.00,   0.00, 1024.2,   91.7, -999.0
08-05-2022, 00:36:51,      3,    0.0,    8.4,   0.00,   0.00, 1024.2,   91.6, -999.0
08-05-2022, 00:37:01,      3,    0.0,    8.4,   0.00,   0.00, 1024.2,   91.6, -999.0
08-05-2022, 00:37:11,      3,    0.0,    8.4,   0.00,   0.00, 1024.2,   91.6, -999.0
08-05-2022, 00:37:21,      3,    0.0,    8.4,   0.00,   0.00, 1024.2,   91.6, -999.0
08-05-2022, 00:37:31,      3,    0.0,    8.5,   0.00,   0.00, 1024.2,   91.8, -999.0
08-05-2022, 00:37:41,      3,    0.0,    8.4,   0.00,   0.00, 1024.2,   91.7, -999.0
08-05-2022, 00:37:51,      3,    0.0,    8.4,   0.00,   0.00, 1024.2,   91.7, -999.0
08-05-2022, 00:38:01,      3,    0.0,    8.4,   0.00,   0.00, 1024.2,   91.7, -999.0
08-05-2022, 00:38:11,      3,    0.0,    8.4,   0.00,   0.00, 1024.2,   91.6, -999.0
08-05-2022, 00:38:21,      3,    0.0,    8.3,   0.00,   0.00, 1024.2,   91.6, -999.0
08-05-2022, 00:38:31,      3,    0.0,    8.4,   0.00,   0.00, 1024.2,   91.6, -999.0
08-05-2022, 00:38:41,      3,    0.0,    8.4,   0.00,   0.00, 1024.2,   91.6, -999.0
08-05-2022, 00:38:51,      3,    0.0,    8.4,   0.00,   0.00, 1024.2,   91.7, -999.0
08-05-2022, 00:39:01,      3,    0.0,    8.4,   0.00,   0.00, 1024.2,   91.6, -999.0
08-05-2022, 00:39:10,      3,    0.0,    8.3,   0.00,   0.00, 1024.2,   91.7, -999.0
08-05-2022, 00:39:20,      3,    0.0,    8.3,   0.00,   0.00, 1024.2,   91.6, -999.0
08-05-2022, 00:39:31,      3,    0.0,    8.4,   0.00,   0.00, 1024.2,   91.7, -999.0
08-05-2022, 00:39:40,      3,    0.0,    8.5,   0.00,   0.00, 1024.2,   91.8, -999.0
08-05-2022, 00:39:50,      3,    0.0,    8.3,   0.00,   0.00, 1024.2,   91.7, -999.0
08-05-2022, 00:40:00,      1,    0.0,    8.4,   0.00,   0.00, 1024.2,   91.5, -999.0
08-05-2022, 00:40:10,      3,    0.0,    8.3,   0.00,   0.00, 1024.2,   91.3, -999.0
08-05-2022, 00:40:20,      1,    0.0,    8.3,   0.00,   0.00, 1024.2,   91.3, -999.0
08-05-2022, 00:40:30,      3,    0.0,    8.3,   0.00,   0.00, 1024.2,   91.3, -999.0
08-05-2022, 00:40:40,      3,    0.0,    8.2,   0.00,   0.00, 1024.2,   91.5, -999.0
08-05-2022, 00:40:50,      3,    0.0,    8.3,   0.00,   0.00, 1024.2,   91.5, -999.0
08-05-2022, 00:41:00,      3,    0.0,    8.4,   0.00,   0.00, 1024.2,   91.6, -999.0
08-05-2022, 00:41:10,      3,    0.0,    8.4,   0.00,   0.00, 1024.2,   91.6, -999.0
08-05-2022, 00:41:20,      4,    0.0,    8.4,   0.00,   0.00, 1024.2,   91.6, -999.0
08-05-2022, 00:41:30,      3,    0.0,    8.4,   0.00,   0.00, 1024.2,   91.7, -999.0
08-05-2022, 00:41:40,      3,    0.0,    8.4,   0.00,   0.00, 1024.2,   91.7, -999.0
08-05-2022, 00:41:49,      3,    0.0,    8.4,   0.00,   0.00, 1024.2,   91.8, -999.0
08-05-2022, 00:42:00,      3,    0.0,    8.4,   0.00,   0.00, 1024.2,   91.7, -999.0
08-05-2022, 00:42:10,      3,    0.0,    8.3,   0.00,   0.00, 1024.2,   91.7, -999.0
08-05-2022, 00:42:19,      2,    0.0,    8.3,   0.00,   0.00, 1024.2,   91.7, -999.0
08-05-2022, 00:42:30,      3,    0.0,    8.3,   0.00,   0.00, 1024.1,   91.8, -999.0
08-05-2022, 00:42:40,      3,    0.0,    8.4,   0.00,   0.00, 1024.2,   91.8, -999.0
08-05-2022, 00:42:49,      3,    0.0,    8.3,   0.00,   0.00, 1024.2,   91.8, -999.0
08-05-2022, 00:42:59,      3,    0.0,    8.3,   0.00,   0.00, 1024.2,   91.6, -999.0
08-05-2022, 00:43:09,      3,    0.0,    8.4,   0.00,   0.00, 1024.1,   91.6, -999.0
08-05-2022, 00:43:19,      3,    0.0,    8.4,   0.00,   0.00, 1024.1,   91.7, -999.0
08-05-2022, 00:43:29,      3,    0.0,    8.4,   0.00,   0.00, 1024.1,   91.8, -999.0
08-05-2022, 00:43:39,      3,    0.0,    8.3,   0.00,   0.00, 1024.2,   92.1, -999.0
08-05-2022, 00:43:49,      3,    0.0,    8.4,   0.00,   0.00, 1024.1,   92.1, -999.0
08-05-2022, 00:43:59,      3,    0.0,    8.5,   0.00,   0.00, 1024.2,   92.0, -999.0
08-05-2022, 00:44:09,      3,    0.0,    8.5,   0.00,   0.00, 1024.2,   91.9, -999.0
08-05-2022, 00:44:19,      3,    0.0,    8.4,   0.00,   0.00, 1024.2,   91.8, -999.0
08-05-2022, 00:44:29,      3,    0.0,    8.4,   0.00,   0.00, 1024.2,   91.8, -999.0
08-05-2022, 00:44:39,      3,    0.0,    8.4,   0.00,   0.00, 1024.2,   91.9, -999.0
08-05-2022, 00:44:49,      3,    0.0,    8.4,   0.00,   0.00, 1024.2,   92.0, -999.0
08-05-2022, 00:44:59,      3,    0.0,    8.5,   0.00,   0.00, 1024.2,   92.1, -999.0
08-05-2022, 00:45:09,      3,    0.0,    8.5,   0.00,   0.00, 1024.2,   92.1, -999.0
08-05-2022, 00:45:19,      3,    0.0,    8.5,   0.00,   0.00, 1024.2,   92.0, -999.0
08-05-2022, 00:45:28,      3,    0.0,    8.4,   0.00,   0.00, 1024.2,   91.7, -999.0
08-05-2022, 00:45:39,      3,    0.0,    8.4,   0.00,   0.00, 1024.2,   91.6, -999.0
08-05-2022, 00:45:48,      3,    0.0,    8.4,   0.00,   0.00, 1024.2,   91.6, -999.0
08-05-2022, 00:45:58,      3,    0.0,    8.4,   0.00,   0.00, 1024.1,   91.6, -999.0
08-05-2022, 00:46:08,      3,    0.0,    8.4,   0.00,   0.00, 1024.2,   91.7, -999.0
08-05-2022, 00:46:18,      3,    0.0,    8.3,   0.00,   0.00, 1024.2,   91.7, -999.0
08-05-2022, 00:46:28,      3,    0.0,    8.3,   0.00,   0.00, 1024.2,   91.7, -999.0
08-05-2022, 00:46:38,      3,    0.0,    8.4,   0.00,   0.00, 1024.2,   91.7, -999.0